Location: Holyhead Bay
(53.3667°N, 4.6667°W)
Time: 06:26:13
(UTC+00:00)

ADEOS Rocket - Pass Details

Date: 20 April 2021
Orbit: 859 x 1306 km, 98.7° (Epoch: 12 May)

Event Time Altitude Azimuth Distance (km) Brightness Sun altitude
Exits shadow 03:11:24 - 176° (S) 3,125 5.3 -15.3°
Reaches altitude 10° 03:12:10 10° 177° (S) 2,844 5.0 -15.2°
Maximum altitude 03:18:36 65° 259° (W) 1,234 3.3 -14.5°
Drops below altitude 10° 03:25:50 10° 341° (NNW) 3,172 6.0 -13.7°
Sets 03:28:38 0° 344° (NNW) 4,191 6.7 -13.4°
